Location: Shannon
(40.5500°S, 175.4167°E)
Time: 11:40:54
(UTC+00:00)

Cosmos 1862 Rocket - Pass Details

Date: 17 November 2025
Orbit: 598 x 625 km, 82.5° (Epoch: 09 December)

Event Time Altitude Azimuth Distance (km) Brightness Sun altitude
Rises 14:01:36 0° 184° (S) 2,921 7.9 -24.3°
Reaches altitude 10° 14:03:54 10° 180° (S) 2,002 6.9 -24.1°
Maximum altitude 14:08:17 60° 100° (E) 708 3.9 -23.6°
Enters shadow 14:09:12 48° 50° (NE) 807 4.0 -23.5°
